Location: Bullfrog
(37.5121°N, 110.7330°W)
Time: 22:55:58
(UTC-07:00)

ISS - Pass Details

Date: 25 January 2026
Orbit: 414 x 429 km, 51.6° (Epoch: 8 February)

Event Time Altitude Azimuth Distance (km) Brightness Sun altitude
Rises 18:30:06 0° 321° (NW) 2,362 0.4 -10.3°
Reaches altitude 10° 18:33:03 10° 349° (N) 1,500 -1.0 -10.8°
Maximum altitude 18:34:48 13° 21° (NNE) 1,307 -1.6 -11.2°
Enters shadow 18:35:40 13° 38° (NE) 1,356 -1.6 -11.3°
